[[{"header":{"parameterUnit":"m.s-1","parameterCategory":2,"la1":30.2991,"la2":30.254,"lo1":-89.0895,"lo2":-89.0444,"dy":0.0017,"dx":0.0017,"nx":28,"ny":28,"refTime":"2025-09-05T03:00:00:Z","depth":"0","parameterNumber":2,"parameterNumberName":"U-component_of_CURRENTS"},"data":[0,0,0,0,0,0,0,0,0,0,0,0,0,0,0,0,0,0,0,0,0,0,0,0,0,0,0,0,0,0,0,0,0,0,0,0,0,0,0,0,0,0,0,0,0,0,0,0,0,0,0,0,0,0,0,0,0,0,0.2056,0.2057,0,0.2126,0.2127,0.2128,0.2201,0.2202,0.2203,0.2204,0.2267,0.2267,0.2268,0,0,0,0,0,0,0,0,0,0,0,0,0,0.192,0.1922,0.2056,0.2057,0.2058,0.2126,0.2127,0.2128,0.22,0.2202,0.2203,0.2205,0.2267,0.2267,0.2268,0,0,0,0,0,0,0,0,0,0,0,0,0,0.1981,0.1923,0.2056,0.2104,0.2109,0.2126,0.2127,0.2128,0.22,0.2202,0.2204,0.2205,0.2266,0.2267,0.2268,0.2237,0,0,0.2271,0.2271,0,0,0,0,0,0,0,0,0.1978,0.1986,0.2096,0.2101,0.2107,0.2158,0.2102,0.2165,0.22,0.2163,0.2204,0.2206,0.223,0.2234,0.224,0.224,0.2243,0.2271,0.2271,0.2272,0.2272,0,0,0,0,0,0,0,0.1974,0.1983,0.2082,0.2097,0.2103,0.21,0.2111,0.2114,0.2184,0.2167,0.2173,0.2183,0.2233,0.2239,0.2242,0.2244,0.2271,0.2271,0.2272,0.2272,0.2193,0.219,0,0,0,0,0,0,0.1971,0.198,0.208,0.2084,0.2048,0.2102,0.2114,0.2138,0.2184,0.2194,0.2182,0.2186,0.2237,0.2241,0.2245,0.2198,0.2272,0.2272,0.2273,0.2195,0.2192,0.2189,0,0,0,0,0,0,0.1968,0.198,0.2077,0.2034,0.2047,0.2103,0.2129,0.2139,0.2144,0.2196,0.2205,0.2177,0.2238,0.2244,0.2225,0.2201,0.2273,0.2273,0.2199,0.2194,0.2191,0.2112,0,0,0,0,0,0,0.1964,0.1978,0.1979,0.2034,0.2049,0.2076,0.2128,0.2139,0.2149,0.2156,0.2195,0.2203,0.224,0.2223,0.2225,0.2204,0.2274,0.2202,0.2197,0.2192,0.2118,0.2106,0.2096,0,0,0,0,0,0.1959,0.1955,0.1978,0.199,0.2054,0.2075,0.2081,0.2125,0.2147,0.2138,0.2154,0.2202,0.2194,0.2221,0.2225,0.2203,0.2204,0.2198,0.2192,0.2123,0.2108,0.2096,0,0,0,0,0,0,0.1879,0.1964,0.1991,0.2009,0.2035,0.2089,0.2084,0.211,0.2116,0.2121,0.2166,0.2174,0.2151,0.2172,0.2201,0.2161,0.2207,0.2202,0.2153,0.2139,0.2129,0.2161,0.2275,0,0,0,0,0,0.1865,0.1895,0.1957,0.1963,0.1979,0.2024,0.2034,0.2065,0.2086,0.2093,0.2115,0.2128,0.2127,0.213,0.2135,0.2108,0.2126,0.2094,0.2083,0.2073,0.2098,0.2103,0.2096,0.217,0.217,0.217,0,0,0.1833,0.1882,0.1897,0.1948,0.1976,0.1992,0.2034,0.2046,0.205,0.2094,0.2085,0.2089,0.2108,0.2084,0.2076,0.2102,0.2043,0.2066,0.2058,0.2089,0.2096,0.2089,0.2083,0.2166,0.2167,0.2168,0,0,0.1798,0.183,0.1854,0.1877,0.1921,0.1947,0.1946,0.1988,0.1997,0.1983,0.2012,0.1998,0.1998,0.2011,0.2017,0.1941,0.1983,0.1931,0.1909,0.1911,0.1907,0.1903,0.185,0.1843,0.1929,0.1929,0.1929,0,0.1753,0.1802,0.185,0.1876,0.1889,0.1925,0.1934,0.1942,0.1964,0.1959,0.1971,0.1957,0.1971,0.1952,0.1931,0.1922,0.1914,0.1963,0.1901,0.1898,0.1896,0.1844,0.1836,0.1924,0.1925,0.1925,0.1926,0,0.1755,0.1779,0.1783,0.184,0.185,0.1854,0.1886,0.1874,0.1881,0.1896,0.1868,0.1875,0.1877,0.1861,0.1882,0.1858,0.1849,0.1886,0.1945,0.1884,0.1831,0.1825,0.1918,0.1919,0.1921,0.1922,0,0,0.1681,0.1773,0.177,0.1791,0.1833,0.1839,0.1829,0.1834,0.1822,0.1822,0.1802,0.1795,0.1804,0.1811,0.1817,0.1822,0.1772,0.1848,0.185,0.1812,0.1734,0.1541,0.1517,0.1804,0.1804,0.1804,0.168,0,0.1661,0.171,0.1755,0.1758,0.1778,0.1799,0.1788,0.1791,0.1784,0.1763,0.1766,0.1749,0.1782,0.177,0.1779,0.1786,0.1764,0.18,0.1787,0.1785,0.1637,0.1507,0.1376,0.124,0.1675,0.1674,0.1673,0,0.1646,0.1683,0.1709,0.1738,0.1745,0.1741,0.1724,0.1723,0.1708,0.1703,0.1694,0.17,0.169,0.1728,0.1719,0.174,0.1735,0.1737,0.1733,0.1593,0.1583,0.1382,0.1214,0.12,0.1665,0.1666,0.1666,0,0.1584,0.1635,0.1655,0.1668,0.1711,0.1699,0.1701,0.1695,0.1681,0.1661,0.164,0.1643,0.1624,0.1647,0.164,0.1686,0.1613,0.1676,0.1486,0.1471,0.1378,0.1353,0.1217,0.1665,0.1665,0.1665,0.1665,0,0.1549,0.1547,0.1627,0.1633,0.1621,0.1662,0.163,0.1629,0.1618,0.1588,0.1607,0.1569,0.1612,0.1573,0.1597,0.148,0.1571,0.1448,0.1421,0.1332,0.1306,0.1309,0.1338,0.166,0.1661,0.1662,0.1663,0,0.1468,0.1531,0.1542,0.159,0.1598,0.1581,0.1586,0.1567,0.1565,0.152,0.1509,0.1497,0.143,0.1421,0.1415,0.1376,0.1251,0.1265,0.1114,0.1069,0.0858,0.0887,0.071,0.0708,0.1024,0.1018,0.1013,0,0.1432,0.1446,0.1498,0.1503,0.1518,0.1512,0.151,0.1527,0.1508,0.1468,0.1437,0.1354,0.1271,0.1129,0.104,0.0943,0.1026,0.0763,0.0828,0.0776,0.0795,0.0834,0.0854,0.0659,0.0652,0.0646,0.0641,0,0.1356,0.1383,0.1408,0.1414,0.1418,0.1421,0.1416,0.1399,0.1408,0.1351,0.1266,0.1193,0.1011,0.0806,0.0633,0.0599,0.068,0.0631,0.0653,0.0527,0.0494,0.0502,0.0789,0.0589,0.0594,0.0598,0.0601,0.0603,0.129,0.1282,0.1322,0.1309,0.1324,0.1314,0.1264,0.1255,0.1192,0.1063,0.1084,0.0874,0.0643,0.036,0.0331,0.0123,0.0274,0.0111,0.0156,0.0205,0.0175,0.0285,0.0011,0.0013,0.0015,0.0016,0.0017,0,0.1201,0.1212,0.1209,0.1199,0.1176,0.1209,0.1185,0.1105,0.098,0.0872,0.0739,0.038,0.0121,-0.0028,-0.0301,-0.0334,-0.0222,-0.0304,-0.0205,-0.0148,-0.0005,-0.0047,-0.0437,-0.0437,-0.0437,-0.0437,-0.0437,-0.0437,0.1158,0.114,0.1134,0.1059,0.1045,0.0964,0.0927,0.0816,0.0711,0.0427,0.0178,0.0043,-0.0172,-0.0498,-0.0631,-0.0593,-0.0465,-0.0543,-0.04,-0.0233,-0.0186,-0.0141,-0.0173,-0.0584,-0.0584,-0.055,-0.055,-0.055]},{"header":{"parameterUnit":"m.s-1","parameterCategory":2,"la1":30.2991,"la2":30.254,"lo1":-89.0895,"lo2":-89.0444,"dy":0.0017,"dx":0.0017,"nx":28,"ny":28,"refTime":"2025-09-05T03:00:00:Z","depth":"0","parameterNumber":3,"parameterNumberName":"V-component_of_CURRENTS"},"data":[0,0,0,0,0,0,0,0,0,0,0,0,0,0,0,0,0,0,0,0,0,0,0,0,0,0,0,0,0,0,0,0,0,0,0,0,0,0,0,0,0,0,0,0,0,0,0,0,0,0,0,0,0,0,0,0,0,0,-0.0174,-0.0175,0,-0.0271,-0.0272,-0.0273,-0.0333,-0.0333,-0.0333,-0.0334,-0.0428,-0.0431,-0.0433,0,0,0,0,0,0,0,0,0,0,0,0,0,-0.009,-0.0091,-0.0174,-0.0175,-0.0176,-0.027,-0.0272,-0.0273,-0.0333,-0.0333,-0.0333,-0.0334,-0.0428,-0.043,-0.0433,0,0,0,0,0,0,0,0,0,0,0,0,0,-0.0152,-0.0091,-0.0174,-0.0216,-0.022,-0.027,-0.0272,-0.0274,-0.0333,-0.0333,-0.0333,-0.0334,-0.0427,-0.043,-0.0434,-0.0451,0,0,-0.0445,-0.0446,0,0,0,0,0,0,0,0,-0.0148,-0.0155,-0.0209,-0.0213,-0.0218,-0.0289,-0.0277,-0.0332,-0.0333,-0.0292,-0.0334,-0.0334,-0.038,-0.0388,-0.0408,-0.0455,-0.0459,-0.0445,-0.0447,-0.0449,-0.045,0,0,0,0,0,0,0,-0.0144,-0.0152,-0.0214,-0.021,-0.0216,-0.0247,-0.0256,-0.0288,-0.0335,-0.0296,-0.03,-0.0308,-0.0383,-0.0404,-0.041,-0.0461,-0.0445,-0.0448,-0.045,-0.0452,-0.0485,-0.0484,0,0,0,0,0,0,-0.0126,-0.0147,-0.0211,-0.0217,-0.0181,-0.0248,-0.0258,-0.0267,-0.0335,-0.0345,-0.0308,-0.031,-0.0398,-0.0406,-0.0414,-0.0406,-0.0449,-0.0452,-0.0454,-0.0486,-0.0484,-0.0483,0,0,0,0,0,0,-0.0124,-0.0131,-0.0207,-0.0183,-0.0194,-0.0248,-0.0259,-0.0269,-0.0286,-0.0343,-0.0354,-0.0313,-0.0398,-0.0409,-0.0438,-0.0411,-0.0454,-0.0457,-0.0487,-0.0485,-0.0484,-0.0411,0,0,0,0,0,0,-0.0121,-0.0129,-0.0131,-0.0182,-0.0195,-0.0229,-0.0259,-0.027,-0.029,-0.0294,-0.0352,-0.0361,-0.0399,-0.0432,-0.0441,-0.0417,-0.046,-0.0489,-0.0487,-0.0484,-0.0415,-0.0407,-0.04,0,0,0,0,0,-0.0118,-0.0122,-0.0131,-0.0139,-0.0196,-0.0229,-0.0238,-0.0279,-0.029,-0.0295,-0.0333,-0.0359,-0.0423,-0.0435,-0.0446,-0.0422,-0.049,-0.0487,-0.0485,-0.0418,-0.0408,-0.04,0,0,0,0,0,0,-0.0091,-0.0129,-0.0141,-0.0157,-0.0184,-0.0238,-0.025,-0.0271,-0.0306,-0.0308,-0.0358,-0.0371,-0.0381,-0.0411,-0.0423,-0.0421,-0.0455,-0.0454,-0.04,-0.0392,-0.0384,-0.0367,-0.0462,0,0,0,0,0,-0.0082,-0.0093,-0.0132,-0.0143,-0.0154,-0.0197,-0.0215,-0.0238,-0.0275,-0.0291,-0.0328,-0.0359,-0.0378,-0.0393,-0.0421,-0.043,-0.0421,-0.0416,-0.0408,-0.0402,-0.0393,-0.0332,-0.0318,-0.0474,-0.0474,-0.0474,0,0,-0.0075,-0.0097,-0.0103,-0.0137,-0.0163,-0.0181,-0.0209,-0.023,-0.0239,-0.0295,-0.0317,-0.0338,-0.0375,-0.0382,-0.0388,-0.0405,-0.0355,-0.0398,-0.0392,-0.0388,-0.0327,-0.0312,-0.0298,-0.0472,-0.0472,-0.0473,0,0,-0.0069,-0.0082,-0.0092,-0.011,-0.0141,-0.0163,-0.0163,-0.0205,-0.0218,-0.0241,-0.0269,-0.027,-0.0322,-0.0329,-0.0341,-0.0306,-0.0316,-0.0313,-0.0265,-0.0205,-0.0192,-0.0179,-0.0157,-0.0144,-0.031,-0.0309,-0.0309,0,-0.0058,-0.008,-0.0098,-0.0113,-0.0126,-0.015,-0.0161,-0.0176,-0.022,-0.0218,-0.0237,-0.0259,-0.029,-0.0276,-0.0265,-0.0287,-0.0268,-0.0299,-0.0193,-0.0181,-0.017,-0.015,-0.0136,-0.0305,-0.0306,-0.0306,-0.0307,0,-0.0066,-0.008,-0.0085,-0.0108,-0.0118,-0.0132,-0.0149,-0.0151,-0.0162,-0.0173,-0.0159,-0.0186,-0.0196,-0.0195,-0.0228,-0.0161,-0.018,-0.0188,-0.0213,-0.0149,-0.0133,-0.012,-0.03,-0.0301,-0.0303,-0.0303,0,0,-0.0046,-0.0085,-0.0085,-0.0096,-0.0118,-0.0128,-0.0122,-0.0124,-0.0111,-0.0119,-0.0094,-0.0104,-0.0101,-0.0113,-0.0129,-0.008,0.0008,-0.0099,-0.0098,-0.0073,0.0123,0.0121,0.0134,0.0026,0.0029,0.0031,0.0099,0,-0.0048,-0.0076,-0.0089,-0.0101,-0.0116,-0.012,-0.0113,-0.0107,-0.0101,-0.0079,-0.0059,-0.0051,-0.0074,-0.0071,-0.0018,-0.0,0.0049,-0.0011,0.0053,0.0054,0.005,0.0153,0.0157,0.022,0.0112,0.0114,0.0116,0,-0.0052,-0.0071,-0.0093,-0.0103,-0.0106,-0.0107,-0.0086,-0.0083,-0.0046,-0.0037,0.0001,0.0006,0.0064,0.0041,0.0135,0.01,0.0119,0.0139,0.0142,0.0126,0.0079,0.014,0.0248,0.0318,0.0136,0.0134,0.0133,0,-0.0042,-0.0068,-0.0085,-0.0093,-0.0107,-0.0098,-0.0094,-0.0067,-0.005,-0.0002,0.0022,0.0085,0.0117,0.0179,0.0203,0.0182,0.0309,0.0283,0.0299,0.0296,0.0305,0.03,0.0495,0.0368,0.0368,0.0368,0.0368,0,-0.0044,-0.005,-0.0082,-0.0092,-0.0085,-0.0093,-0.0068,-0.0053,-0.0016,0.002,0.0046,0.009,0.016,0.0223,0.0246,0.032,0.0347,0.0335,0.0336,0.0328,0.0323,0.0385,0.0404,0.037,0.037,0.0369,0.0369,0,-0.0023,-0.0054,-0.0067,-0.0085,-0.0086,-0.0076,-0.006,-0.0034,-0.0011,0.0042,0.006,0.0123,0.0206,0.0258,0.0355,0.0372,0.0483,0.0444,0.0409,0.0406,0.0488,0.0509,0.0687,0.0735,0.0497,0.0497,0.0498,0,-0.0013,-0.0027,-0.0054,-0.0051,-0.0056,-0.0049,-0.0035,-0.0027,-0.0,0.0059,0.0093,0.0173,0.0228,0.0358,0.042,0.0487,0.0523,0.0519,0.0491,0.0531,0.0555,0.0568,0.0596,0.0521,0.0522,0.0523,0.0523,0,0.0018,0.0001,-0.0006,-0.0009,-0.0005,-0.0001,0.0013,0.0027,0.0048,0.0082,0.0141,0.0186,0.0299,0.0391,0.0472,0.0505,0.0589,0.0533,0.061,0.0638,0.0633,0.0664,0.0405,0.0529,0.0528,0.0528,0.0527,0.0527,0.0058,0.0059,0.0042,0.0048,0.0047,0.005,0.0058,0.0072,0.0097,0.0134,0.0171,0.0218,0.035,0.0473,0.0533,0.0653,0.0642,0.0674,0.0706,0.0723,0.0762,0.0498,0.0599,0.0599,0.0599,0.0599,0.0599,0,0.0103,0.0097,0.0107,0.0097,0.0101,0.0088,0.0097,0.01,0.0121,0.0136,0.0173,0.0273,0.0426,0.0549,0.0725,0.0814,0.0839,0.0858,0.0894,0.0922,0.0727,0.072,0.0809,0.0809,0.0809,0.0809,0.0809,0.0809,0.0125,0.0136,0.0132,0.0144,0.0141,0.0136,0.0135,0.0137,0.0136,0.0156,0.0173,0.018,0.0361,0.0755,0.097,0.0993,0.1094,0.1081,0.1142,0.1007,0.0992,0.0978,0.0979,0.1122,0.1122,0.1326,0.1328,0.133]}],[{"header":{"parameterUnit":"m.s-1","parameterCategory":2,"la1":30.2991,"la2":30.254,"lo1":-89.0895,"lo2":-89.0444,"dy":0.0017,"dx":0.0017,"nx":28,"ny":28,"refTime":"2025-09-05T03:00:00:Z","depth":"2","parameterNumber":2,"parameterNumberName":"U-component_of_CURRENTS"},"data":[0,0,0,0,0,0,0,0,0,0,0,0,0,0,0,0,0,0,0,0,0,0,0,0,0,0,0,0,0,0,0,0,0,0,0,0,0,0,0,0,0,0,0,0,0,0,0,0,0,0,0,0,0,0,0,0,0,0,0.054,0.054,0,0.0561,0.0561,0.0562,0.0596,0.0596,0.0597,0.0597,0.0622,0.0622,0.0622,0,0,0,0,0,0,0,0,0,0,0,0,0,0.0564,0.0564,0.054,0.054,0.0541,0.0561,0.0561,0.0562,0.0595,0.0596,0.0597,0.0598,0.0622,0.0622,0.0622,0,0,0,0,0,0,0,0,0,0,0,0,0,0.0566,0.0563,0.054,0.056,0.0562,0.0561,0.0561,0.0562,0.0595,0.0596,0.0597,0.0598,0.0622,0.0622,0.0622,0.0603,0,0,0.0622,0.0622,0,0,0,0,0,0,0,0,0.0566,0.0565,0.0557,0.0559,0.0561,0.0577,0.0579,0.0576,0.0595,0.0582,0.0597,0.0599,0.0606,0.0608,0.0609,0.0604,0.0605,0.0622,0.0622,0.0622,0.0622,0,0,0,0,0,0,0,0.0566,0.0565,0.0548,0.0557,0.056,0.058,0.0581,0.0579,0.0589,0.0584,0.0586,0.0589,0.0608,0.0609,0.061,0.0605,0.0622,0.0622,0.0622,0.0622,0.0702,0.0704,0,0,0,0,0,0,0.056,0.0564,0.0548,0.0549,0.0566,0.0579,0.058,0.0571,0.0589,0.0592,0.0588,0.059,0.0608,0.061,0.0611,0.0651,0.0622,0.0622,0.0622,0.07,0.0703,0.0705,0,0,0,0,0,0,0.0561,0.0558,0.0547,0.0558,0.0558,0.0577,0.0567,0.0571,0.0594,0.0592,0.0596,0.061,0.0609,0.0611,0.0643,0.065,0.0622,0.0622,0.0698,0.0701,0.0704,0.0691,0,0,0,0,0,0,0.0561,0.0558,0.0558,0.0557,0.0557,0.0549,0.0566,0.057,0.0593,0.0597,0.0611,0.0613,0.061,0.0643,0.0643,0.0649,0.0622,0.0695,0.0699,0.0703,0.0689,0.0693,0.0697,0,0,0,0,0,0.0562,0.0551,0.0558,0.0556,0.0553,0.0549,0.0551,0.0568,0.0593,0.0595,0.0628,0.0614,0.0669,0.0644,0.0644,0.065,0.0693,0.0698,0.0703,0.0687,0.0692,0.0697,0,0,0,0,0,0,0.0552,0.0553,0.0561,0.0549,0.0552,0.0555,0.056,0.0579,0.0606,0.062,0.063,0.0634,0.067,0.0672,0.0645,0.0693,0.0682,0.0687,0.0671,0.0676,0.068,0.0644,0.0622,0,0,0,0,0,0.0551,0.0552,0.055,0.0543,0.0544,0.0559,0.0566,0.0577,0.0596,0.061,0.0626,0.0656,0.0684,0.069,0.0711,0.0723,0.0728,0.0735,0.074,0.0743,0.0719,0.0783,0.079,0.072,0.072,0.072,0,0,0.0547,0.0547,0.0549,0.0543,0.0549,0.0539,0.0565,0.0573,0.0575,0.0606,0.0628,0.067,0.0697,0.0721,0.0737,0.0722,0.0763,0.0749,0.075,0.0724,0.0789,0.0795,0.0801,0.0724,0.0723,0.0723,0,0,0.0532,0.0537,0.0532,0.053,0.0537,0.0541,0.0548,0.0562,0.0581,0.0605,0.0645,0.0692,0.072,0.0741,0.0756,0.0796,0.0792,0.0818,0.079,0.0854,0.0859,0.0864,0.0854,0.0857,0.0809,0.0809,0.0809,0,0.0535,0.0514,0.053,0.0516,0.0511,0.0541,0.0526,0.0541,0.0571,0.0586,0.0612,0.0693,0.0722,0.0752,0.0776,0.0799,0.0818,0.076,0.0856,0.0861,0.0866,0.0854,0.0859,0.0809,0.0809,0.0809,0.0809,0,0.0506,0.0494,0.0487,0.048,0.0477,0.0471,0.0483,0.0501,0.0538,0.0559,0.0614,0.0669,0.0715,0.0744,0.0768,0.0821,0.0816,0.086,0.083,0.0871,0.0857,0.0862,0.0808,0.0809,0.0809,0.0809,0,0,0.0513,0.0476,0.0479,0.0464,0.0459,0.0454,0.0454,0.0464,0.0483,0.0528,0.0557,0.0625,0.0673,0.0696,0.0746,0.0794,0.0849,0.0839,0.0842,0.0803,0.0946,0.073,0.0713,0.0925,0.0926,0.0927,0.0911,0,0.0493,0.0453,0.0443,0.0414,0.0393,0.0406,0.0405,0.0423,0.0459,0.0497,0.0558,0.0614,0.0648,0.0695,0.0747,0.0847,0.0867,0.0846,0.0933,0.0933,0.0717,0.0714,0.0659,0.0622,0.0916,0.0917,0.0917,0,0.0473,0.0448,0.0409,0.0379,0.0374,0.0371,0.0383,0.0386,0.0433,0.0467,0.0516,0.0575,0.0644,0.069,0.0807,0.0801,0.0858,0.0915,0.0917,0.0715,0.0725,0.0639,0.0619,0.0925,0.0924,0.0924,0.0923,0,0.047,0.0428,0.0398,0.0386,0.0358,0.0362,0.0364,0.039,0.0413,0.0461,0.0502,0.0567,0.0644,0.0722,0.0806,0.0838,0.0918,0.0984,0.0815,0.0799,0.0761,0.0736,0.1044,0.1044,0.1044,0.1044,0.1044,0,0.0445,0.0421,0.0403,0.0385,0.0381,0.0363,0.0383,0.039,0.0429,0.0484,0.0504,0.055,0.0674,0.0726,0.0789,0.0772,0.09,0.0774,0.0779,0.0748,0.0725,0.1007,0.1003,0.1043,0.1043,0.1043,0.1044,0,0.0434,0.0412,0.0387,0.0373,0.0377,0.0382,0.0406,0.043,0.0449,0.0525,0.0549,0.0582,0.0608,0.0646,0.0764,0.0738,0.0754,0.0714,0.0607,0.0594,0.0596,0.0592,0.053,0.0522,0.0515,0.051,0.0505,0,0.0416,0.0404,0.0402,0.0422,0.0423,0.0436,0.046,0.0457,0.0496,0.0547,0.0594,0.0592,0.0559,0.0516,0.0468,0.0416,0.0569,0.0346,0.0373,0.053,0.0543,0.055,0.0555,0.0338,0.0332,0.0328,0.0324,0,0.0415,0.043,0.0442,0.0441,0.0471,0.0489,0.0527,0.054,0.0572,0.0572,0.0561,0.0505,0.0413,0.0264,0.0132,0.0134,0.0334,0.0239,0.05,0.0427,0.0335,0.0352,0.0367,0.0283,0.0287,0.029,0.0292,0.0294,0.0451,0.0468,0.0477,0.0485,0.0505,0.0508,0.0493,0.0512,0.0477,0.0432,0.0458,0.0282,0.0251,-0.0094,-0.0086,-0.0096,-0.0057,-0.0002,0.0022,0.0048,-0.0022,-0.0125,-0.0279,-0.0278,-0.0277,-0.0276,-0.0276,0,0.0466,0.0474,0.0506,0.0492,0.049,0.0496,0.0506,0.0452,0.0345,0.0296,0.0181,-0.0003,-0.0201,-0.021,-0.0327,-0.036,-0.0235,-0.0303,-0.0107,-0.0073,-0.004,-0.0103,-0.0386,-0.0386,-0.0385,-0.0385,0,0,0.0469,0.0487,0.049,0.0454,0.0454,0.0389,0.0363,0.027,0.0179,0.0,-0.0155,-0.0303,-0.0312,-0.0393,-0.0377,-0.0391,-0.0203,-0.0377,-0.0305,-0.0044,-0.001,0.0089,0.0021,0,0,0,0,0]},{"header":{"parameterUnit":"m.s-1","parameterCategory":2,"la1":30.2991,"la2":30.254,"lo1":-89.0895,"lo2":-89.0444,"dy":0.0017,"dx":0.0017,"nx":28,"ny":28,"refTime":"2025-09-05T03:00:00:Z","depth":"2","parameterNumber":3,"parameterNumberName":"V-component_of_CURRENTS"},"data":[0,0,0,0,0,0,0,0,0,0,0,0,0,0,0,0,0,0,0,0,0,0,0,0,0,0,0,0,0,0,0,0,0,0,0,0,0,0,0,0,0,0,0,0,0,0,0,0,0,0,0,0,0,0,0,0,0,0,0.008,0.008,0,0.0088,0.0088,0.0088,0.006,0.006,0.0059,0.0058,0.0012,0.0012,0.0011,0,0,0,0,0,0,0,0,0,0,0,0,0,0.0026,0.0027,0.008,0.008,0.0081,0.0088,0.0088,0.0088,0.006,0.006,0.0059,0.0058,0.0012,0.0012,0.0011,0,0,0,0,0,0,0,0,0,0,0,0,0,0.0041,0.0027,0.008,0.0069,0.0068,0.0089,0.0088,0.0088,0.0061,0.006,0.0059,0.0058,0.0013,0.0012,0.0011,0.0026,0,0,0.0008,0.0008,0,0,0,0,0,0,0,0,0.0041,0.0043,0.007,0.007,0.0069,0.0074,0.0052,0.0065,0.0061,0.0062,0.0058,0.0057,0.003,0.0027,0.0029,0.0024,0.0022,0.0008,0.0007,0.0007,0.0007,0,0,0,0,0,0,0,0.004,0.0043,0.0082,0.0071,0.007,0.0059,0.006,0.0055,0.0049,0.0061,0.006,0.0064,0.0028,0.003,0.0028,0.0021,0.0008,0.0007,0.0007,0.0006,-0.0056,-0.0057,0,0,0,0,0,0,0.0044,0.0042,0.0081,0.0082,0.0054,0.0061,0.0062,0.0072,0.005,0.0047,0.0065,0.0063,0.0032,0.0029,0.0026,-0.0014,0.0007,0.0006,0.0006,-0.0055,-0.0056,-0.0057,0,0,0,0,0,0,0.0043,0.0048,0.0081,0.0063,0.0067,0.0063,0.0074,0.0073,0.0052,0.0054,0.0049,0.0044,0.0031,0.0027,-0.0006,-0.0014,0.0006,0.0005,-0.0053,-0.0055,-0.0057,-0.0058,0,0,0,0,0,0,0.0042,0.0048,0.0046,0.0064,0.0068,0.0078,0.0076,0.0074,0.0059,0.0055,0.0035,0.0031,0.003,-0.0005,-0.0007,-0.0015,0.0004,-0.0052,-0.0054,-0.0056,-0.0057,-0.006,-0.0062,0,0,0,0,0,0.004,0.0045,0.0046,0.005,0.007,0.0078,0.0078,0.0071,0.0058,0.0048,0.0025,0.003,-0.002,-0.0007,-0.0009,-0.0017,-0.0051,-0.0053,-0.0056,-0.0055,-0.0059,-0.0062,0,0,0,0,0,0,0.0022,0.0044,0.0045,0.0056,0.006,0.0073,0.0066,0.006,0.0037,0.0025,0.0018,0.0012,-0.002,-0.0024,-0.0009,-0.0044,-0.0035,-0.0038,-0.0034,-0.0037,-0.004,-0.0011,0.0004,0,0,0,0,0,0.002,0.0026,0.0043,0.0049,0.0051,0.0054,0.0052,0.0047,0.0037,0.0025,0.0007,-0.0013,-0.0026,-0.0038,-0.0052,-0.0069,-0.0038,-0.0078,-0.0081,-0.0083,-0.0064,-0.0017,-0.0012,-0.0065,-0.0065,-0.0065,0,0,0.0015,0.0027,0.003,0.0045,0.0047,0.0054,0.0048,0.0043,0.0039,0.0024,-0.0005,-0.0025,-0.0035,-0.0056,-0.007,-0.0063,-0.0058,-0.0086,-0.0088,-0.0067,-0.0019,-0.0013,-0.0008,-0.0067,-0.0067,-0.0066,0,0,0.0015,0.0019,0.0025,0.0029,0.0032,0.0037,0.003,0.0027,0.0013,-0.0011,-0.0023,-0.0046,-0.0079,-0.0076,-0.0079,-0.0105,-0.0075,-0.0125,-0.011,-0.0066,-0.006,-0.0054,-0.0023,-0.0014,-0.0124,-0.0124,-0.0124,0,0.0005,0.0022,0.0025,0.0033,0.0038,0.0028,0.0035,0.0026,0.0006,0.0002,-0.0027,-0.0055,-0.0077,-0.0069,-0.009,-0.0106,-0.0082,-0.0094,-0.0065,-0.0058,-0.0052,-0.0022,-0.0012,-0.0124,-0.0124,-0.0124,-0.0124,0,0.0015,0.0023,0.0025,0.0037,0.0039,0.004,0.0039,0.0024,-0.0001,-0.0005,-0.0025,-0.0051,-0.0062,-0.0082,-0.0098,-0.0073,-0.0071,-0.0072,-0.0046,-0.0046,-0.0016,-0.0005,-0.0125,-0.0125,-0.0125,-0.0124,0,0,0.0006,0.0029,0.0027,0.0036,0.0041,0.0046,0.0042,0.0047,0.0049,0.0013,0.0024,-0.0017,-0.0034,-0.0038,-0.0058,-0.003,0.001,-0.004,-0.0037,0.0009,0.0104,0.0104,0.0115,0.0018,0.002,0.0022,0.0103,0,0.001,0.0029,0.004,0.0051,0.0062,0.0062,0.0065,0.0064,0.005,0.0051,0.0038,0.0024,-0.0015,-0.0031,-0.0007,0.0012,0.0039,-0.0012,0.0081,0.0084,0.0101,0.0128,0.0087,0.0156,0.0113,0.0115,0.0116,0,0.0012,0.0029,0.0043,0.007,0.0074,0.0072,0.0084,0.0086,0.0094,0.0084,0.0083,0.0069,0.0087,0.005,0.0112,0.0081,0.0089,0.0106,0.011,0.0126,0.0105,0.015,0.0177,0.0134,0.0132,0.0131,0.013,0,0.0003,0.003,0.004,0.0047,0.0072,0.0071,0.0075,0.0085,0.0088,0.0101,0.0103,0.0131,0.0136,0.0171,0.0173,0.0149,0.0255,0.0231,0.0245,0.0245,0.0239,0.0235,0.0287,0.0287,0.0287,0.0287,0.0286,0,0.0005,0.0015,0.003,0.0035,0.0045,0.0061,0.0065,0.0076,0.0092,0.0106,0.0107,0.0133,0.0166,0.0212,0.0218,0.0271,0.0293,0.0269,0.0278,0.0232,0.0226,0.0229,0.0221,0.029,0.0289,0.0288,0.0288,0,-0.0006,0.0006,0.0018,0.0035,0.0037,0.0037,0.0047,0.0062,0.0069,0.0091,0.0092,0.015,0.0216,0.0249,0.0323,0.0327,0.0375,0.038,0.0315,0.0315,0.0323,0.0313,0.0426,0.0427,0.0427,0.0428,0.0429,0,-0.0007,-0.0004,0.0004,0.0011,0.0012,0.0014,0.0025,0.0039,0.0055,0.0102,0.0124,0.0189,0.024,0.0357,0.0379,0.0423,0.041,0.0413,0.0362,0.0346,0.0343,0.0332,0.0322,0.0344,0.0344,0.0344,0.0344,0,-0.0006,-0.0016,-0.0008,0.0013,0.0017,0.0027,0.0037,0.0046,0.0073,0.0097,0.017,0.0217,0.0301,0.0356,0.0402,0.0416,0.0406,0.0412,0.0443,0.0309,0.0275,0.0269,0.0261,0.0343,0.0343,0.0343,0.0343,0.0343,-0.0009,-0.0007,0.0009,0.0025,0.0036,0.0057,0.0058,0.0082,0.0114,0.0137,0.02,0.023,0.0302,0.0342,0.0394,0.0406,0.0406,0.0397,0.0396,0.0395,0.0365,0.0334,0.0406,0.0407,0.0407,0.0407,0.0408,0,0.0008,0.0019,0.0037,0.0057,0.0066,0.007,0.009,0.0088,0.0123,0.0128,0.0169,0.0206,0.0267,0.0308,0.0316,0.0368,0.0347,0.038,0.0336,0.0337,0.0338,0.0303,0.0329,0.0329,0.0329,0.0329,0,0,0.003,0.0051,0.0062,0.0091,0.0093,0.0104,0.0108,0.0108,0.0103,0.0108,0.0089,0.0139,0.0213,0.0222,0.0293,0.0294,0.03,0.0293,0.0348,0.0288,0.0288,0.0337,0.0283,0,0,0,0,0]}],[{"header":{"parameterUnit":"m.s-1","parameterCategory":2,"la1":30.2991,"la2":30.254,"lo1":-89.0895,"lo2":-89.0444,"dy":0.0017,"dx":0.0017,"nx":28,"ny":28,"refTime":"2025-09-05T03:00:00:Z","depth":"4","parameterNumber":2,"parameterNumberName":"U-component_of_CURRENTS"},"data":[0,0,0,0,0,0,0,0,0,0,0,0,0,0,0,0,0,0,0,0,0,0,0,0,0,0,0,0,0,0,0,0,0,0,0,0,0,0,0,0,0,0,0,0,0,0,0,0,0,0,0,0,0,0,0,0,0,0,-0.0557,-0.0557,0,-0.0576,-0.0576,-0.0576,-0.0592,-0.0592,-0.0592,-0.0593,-0.0622,-0.0622,-0.0623,0,0,0,0,0,0,0,0,0,0,0,0,0,-0.0517,-0.0518,-0.0557,-0.0557,-0.0558,-0.0576,-0.0576,-0.0576,-0.0592,-0.0592,-0.0593,-0.0593,-0.0621,-0.0622,-0.0623,0,0,0,0,0,0,0,0,0,0,0,0,0,-0.0534,-0.0518,-0.0557,-0.0568,-0.057,-0.0576,-0.0576,-0.0576,-0.0592,-0.0592,-0.0593,-0.0593,-0.0621,-0.0622,-0.0623,-0.062,0,0,-0.0625,-0.0626,0,0,0,0,0,0,0,0,-0.0533,-0.0536,-0.0566,-0.0568,-0.0569,-0.0583,-0.0573,-0.0592,-0.0592,-0.0582,-0.0593,-0.0593,-0.061,-0.0612,-0.0613,-0.0621,-0.0623,-0.0625,-0.0626,-0.0626,-0.0626,0,0,0,0,0,0,0,-0.0532,-0.0535,-0.0564,-0.0567,-0.0568,-0.0567,-0.0569,-0.0576,-0.0593,-0.0583,-0.0585,-0.0588,-0.0611,-0.0612,-0.0614,-0.0623,-0.0625,-0.0626,-0.0627,-0.0627,-0.0688,-0.0689,0,0,0,0,0,0,-0.0532,-0.0534,-0.0563,-0.0564,-0.0553,-0.0567,-0.057,-0.0577,-0.0593,-0.0596,-0.0588,-0.0589,-0.061,-0.0613,-0.0615,-0.0627,-0.0626,-0.0627,-0.0627,-0.0687,-0.0688,-0.069,0,0,0,0,0,0,-0.0532,-0.0535,-0.0562,-0.055,-0.0553,-0.0568,-0.0575,-0.0577,-0.059,-0.0596,-0.06,-0.0599,-0.0611,-0.0614,-0.0637,-0.0627,-0.0627,-0.0628,-0.0686,-0.0687,-0.0689,-0.0641,0,0,0,0,0,0,-0.053,-0.0535,-0.0543,-0.055,-0.0554,-0.0574,-0.0575,-0.0577,-0.0591,-0.0593,-0.0607,-0.061,-0.0611,-0.0636,-0.0638,-0.0629,-0.0629,-0.0684,-0.0686,-0.0688,-0.0641,-0.0641,-0.0641,0,0,0,0,0,-0.0529,-0.0539,-0.0544,-0.0547,-0.0565,-0.0574,-0.0577,-0.0587,-0.0592,-0.0599,-0.0614,-0.061,-0.0651,-0.0637,-0.0639,-0.063,-0.0683,-0.0686,-0.0688,-0.0641,-0.0641,-0.0641,0,0,0,0,0,0,-0.0525,-0.0542,-0.0547,-0.0562,-0.0571,-0.0578,-0.0588,-0.0592,-0.0609,-0.0616,-0.062,-0.0624,-0.0645,-0.0654,-0.0638,-0.066,-0.0668,-0.0671,-0.0632,-0.0632,-0.0632,-0.061,-0.0629,0,0,0,0,0,-0.0529,-0.0545,-0.0554,-0.0568,-0.0573,-0.0582,-0.0589,-0.0596,-0.0609,-0.0617,-0.0629,-0.0646,-0.0655,-0.0657,-0.0677,-0.068,-0.0678,-0.0682,-0.0681,-0.0681,-0.0669,-0.0648,-0.0643,-0.0698,-0.0698,-0.0698,0,0,-0.0532,-0.0544,-0.0553,-0.0569,-0.0578,-0.0587,-0.0587,-0.0603,-0.062,-0.0617,-0.0649,-0.0652,-0.0662,-0.0671,-0.068,-0.0673,-0.0672,-0.0684,-0.0683,-0.0671,-0.065,-0.0644,-0.0639,-0.07,-0.07,-0.0699,0,0,-0.0544,-0.0557,-0.0572,-0.058,-0.0596,-0.0601,-0.0607,-0.0623,-0.064,-0.0665,-0.0665,-0.066,-0.0693,-0.0676,-0.0676,-0.0689,-0.068,-0.0704,-0.0665,-0.0645,-0.0639,-0.0634,-0.0643,-0.0639,-0.069,-0.069,-0.069,0,-0.0545,-0.0566,-0.0577,-0.0589,-0.0598,-0.0608,-0.062,-0.0637,-0.0661,-0.0669,-0.0682,-0.0689,-0.0692,-0.0668,-0.0663,-0.0683,-0.0679,-0.0656,-0.064,-0.0634,-0.0629,-0.064,-0.0636,-0.0688,-0.0688,-0.0689,-0.0689,0,-0.0563,-0.058,-0.0589,-0.0609,-0.062,-0.0633,-0.0652,-0.0678,-0.0698,-0.0698,-0.0704,-0.0695,-0.0683,-0.0684,-0.0669,-0.063,-0.0644,-0.0646,-0.0626,-0.062,-0.0634,-0.063,-0.0685,-0.0686,-0.0687,-0.0687,0,0,-0.0554,-0.0594,-0.0597,-0.0609,-0.0631,-0.064,-0.0678,-0.0695,-0.0709,-0.0718,-0.0717,-0.0697,-0.0661,-0.0657,-0.0629,-0.0595,-0.0554,-0.059,-0.0589,-0.0575,-0.0523,-0.0523,-0.052,-0.054,-0.0539,-0.0538,-0.0552,0,-0.0561,-0.059,-0.061,-0.0633,-0.0644,-0.067,-0.0704,-0.0722,-0.0734,-0.074,-0.0707,-0.0692,-0.066,-0.0631,-0.0589,-0.0563,-0.0539,-0.0551,-0.0553,-0.0554,-0.0533,-0.0513,-0.0534,-0.0549,-0.0549,-0.0548,-0.0548,0,-0.0565,-0.0584,-0.0613,-0.065,-0.0659,-0.0681,-0.072,-0.0743,-0.075,-0.0751,-0.0705,-0.0681,-0.0609,-0.06,-0.0529,-0.0533,-0.0519,-0.0508,-0.0509,-0.0516,-0.0545,-0.0557,-0.0541,-0.0541,-0.0542,-0.0542,-0.0543,0,-0.0547,-0.0583,-0.0609,-0.0619,-0.0664,-0.0696,-0.0721,-0.0745,-0.0758,-0.0731,-0.0722,-0.065,-0.0615,-0.0567,-0.0529,-0.0517,-0.0484,-0.0477,-0.0476,-0.0479,-0.0494,-0.05,-0.0445,-0.0445,-0.0445,-0.0445,-0.0445,0,-0.0539,-0.0557,-0.0608,-0.062,-0.0659,-0.0688,-0.0719,-0.074,-0.0746,-0.0734,-0.07,-0.0673,-0.06,-0.0575,-0.0536,-0.0493,-0.0491,-0.0461,-0.0469,-0.0481,-0.0485,-0.0493,-0.0498,-0.0446,-0.0446,-0.0446,-0.0445,0,-0.0515,-0.0549,-0.0574,-0.0629,-0.0653,-0.0675,-0.0723,-0.0731,-0.0742,-0.0726,-0.0709,-0.0679,-0.0623,-0.0591,-0.0533,-0.0511,-0.0474,-0.0476,-0.0515,-0.0528,-0.0482,-0.0486,-0.0448,-0.0448,-0.0448,-0.0448,-0.0448,0,-0.0506,-0.052,-0.0576,-0.0593,-0.0623,-0.0662,-0.069,-0.072,-0.0714,-0.0725,-0.0707,-0.0677,-0.0645,-0.0566,-0.0539,-0.0488,-0.0483,-0.0488,-0.0443,-0.0464,-0.0476,-0.048,-0.0483,-0.0447,-0.0447,-0.0447,-0.0447,0,-0.0479,-0.0506,-0.0529,-0.0564,-0.0597,-0.0624,-0.0661,-0.0655,-0.0676,-0.0699,-0.066,-0.0631,-0.0595,-0.0535,-0.0519,-0.0483,-0.0482,-0.0485,-0.0484,-0.0442,-0.0463,-0.0476,-0.0479,-0.0447,-0.0447,-0.0447,-0.0447,0,-0.0457,-0.0468,-0.05,-0.0524,-0.0558,-0.0569,-0.0599,-0.0597,-0.0604,-0.0616,-0.061,-0.0586,-0.0583,-0.0537,-0.0518,-0.0481,-0.0454,-0.0438,-0.0439,-0.044,-0.0429,-0.0454,-0.0429,0,0,0,0,0,-0.0422,-0.0433,-0.0455,-0.0481,-0.0508,-0.0532,-0.0567,-0.059,-0.0622,-0.0573,-0.0585,-0.0543,-0.0502,-0.0504,-0.0454,-0.0515,-0.0461,-0.046,-0.0446,-0.0444,-0.0444,-0.0431,0,0,0,0,0,0,-0.04,-0.0423,-0.0437,-0.0429,-0.0441,-0.0471,-0.0491,-0.0521,-0.0494,-0.0524,-0.0488,-0.0527,-0.0477,-0.0504,-0.0444,-0.0445,-0.0431,-0.046,-0.0459,-0.0443,-0.0444,-0.0444,-0.0431,0,0,0,0,0]},{"header":{"parameterUnit":"m.s-1","parameterCategory":2,"la1":30.2991,"la2":30.254,"lo1":-89.0895,"lo2":-89.0444,"dy":0.0017,"dx":0.0017,"nx":28,"ny":28,"refTime":"2025-09-05T03:00:00:Z","depth":"4","parameterNumber":3,"parameterNumberName":"V-component_of_CURRENTS"},"data":[0,0,0,0,0,0,0,0,0,0,0,0,0,0,0,0,0,0,0,0,0,0,0,0,0,0,0,0,0,0,0,0,0,0,0,0,0,0,0,0,0,0,0,0,0,0,0,0,0,0,0,0,0,0,0,0,0,0,0.0325,0.0325,0,0.036,0.036,0.0361,0.038,0.0381,0.0381,0.0381,0.0421,0.0422,0.0423,0,0,0,0,0,0,0,0,0,0,0,0,0,0.0268,0.0269,0.0324,0.0325,0.0326,0.036,0.036,0.0361,0.038,0.0381,0.0381,0.0381,0.0421,0.0422,0.0423,0,0,0,0,0,0,0,0,0,0,0,0,0,0.0295,0.0269,0.0324,0.0341,0.0343,0.036,0.036,0.0361,0.038,0.0381,0.0381,0.0381,0.042,0.0422,0.0423,0.0423,0,0,0.0427,0.0427,0,0,0,0,0,0,0,0,0.0293,0.0297,0.0338,0.034,0.0343,0.0368,0.0355,0.0382,0.038,0.0364,0.0381,0.0382,0.0405,0.0407,0.041,0.0425,0.0427,0.0427,0.0428,0.0428,0.0428,0,0,0,0,0,0,0,0.0292,0.0295,0.0336,0.0339,0.0342,0.0345,0.0349,0.036,0.038,0.0366,0.0368,0.0375,0.0406,0.0409,0.0411,0.0427,0.0427,0.0428,0.0429,0.0429,0.0503,0.0504,0,0,0,0,0,0,0.0291,0.0294,0.0335,0.0338,0.0321,0.0346,0.0351,0.0358,0.038,0.0385,0.0374,0.0376,0.0407,0.041,0.0413,0.0462,0.0428,0.0429,0.043,0.0502,0.0503,0.0505,0,0,0,0,0,0,0.029,0.0295,0.0334,0.0318,0.0324,0.0347,0.0355,0.0358,0.0372,0.0387,0.0391,0.0386,0.0407,0.0411,0.0434,0.0462,0.043,0.0431,0.05,0.0502,0.0504,0.053,0,0,0,0,0,0,0.0288,0.0294,0.0302,0.0318,0.0325,0.035,0.0355,0.0359,0.0376,0.0378,0.0398,0.0402,0.0408,0.0432,0.0435,0.0463,0.0432,0.0499,0.0501,0.0503,0.0528,0.0533,0.0537,0,0,0,0,0,0.0286,0.0297,0.0302,0.0307,0.0334,0.0351,0.0354,0.037,0.0376,0.0383,0.04,0.0402,0.0449,0.0434,0.0437,0.0466,0.0498,0.0501,0.0503,0.0526,0.0532,0.0537,0,0,0,0,0,0,0.028,0.03,0.0306,0.0324,0.0339,0.0355,0.0366,0.0375,0.0392,0.0397,0.0409,0.0414,0.0457,0.0451,0.0434,0.0496,0.0477,0.0481,0.0493,0.0499,0.0503,0.0481,0.0433,0,0,0,0,0,0.0281,0.0292,0.0311,0.0325,0.0333,0.0349,0.036,0.0371,0.0388,0.0396,0.0415,0.0436,0.0469,0.0474,0.0503,0.0518,0.0498,0.0543,0.0547,0.0551,0.0537,0.0508,0.0507,0.0514,0.0514,0.0514,0,0,0.028,0.0295,0.0301,0.0324,0.0336,0.0345,0.0356,0.0375,0.0393,0.0398,0.0431,0.0461,0.0482,0.0517,0.0534,0.0512,0.0548,0.0555,0.0558,0.0541,0.051,0.0509,0.0508,0.0515,0.0515,0.0515,0,0,0.0283,0.03,0.0308,0.0319,0.0341,0.035,0.0357,0.0382,0.0406,0.045,0.046,0.0489,0.0546,0.0545,0.0559,0.0599,0.0586,0.0627,0.0614,0.0587,0.0585,0.0583,0.0587,0.0585,0.0612,0.0612,0.0612,0,0.0279,0.0296,0.0313,0.0323,0.033,0.0351,0.0357,0.0385,0.0418,0.0442,0.0473,0.0539,0.0559,0.0569,0.0595,0.0607,0.0599,0.0591,0.0589,0.0587,0.0584,0.0588,0.0586,0.0613,0.0613,0.0613,0.0613,0,0.0285,0.0299,0.0305,0.032,0.033,0.0341,0.0372,0.0403,0.0451,0.0481,0.0538,0.0563,0.0591,0.0616,0.0627,0.062,0.0625,0.061,0.0568,0.0585,0.0589,0.0586,0.0616,0.0615,0.0615,0.0614,0,0,0.027,0.03,0.0304,0.0305,0.0329,0.0333,0.0375,0.0412,0.044,0.0503,0.0531,0.0597,0.0607,0.0619,0.062,0.0596,0.0595,0.0597,0.0594,0.0588,0.0558,0.0513,0.0506,0.0576,0.0575,0.0574,0.0578,0,0.0267,0.0281,0.0298,0.0302,0.0305,0.0336,0.0367,0.0407,0.0468,0.0505,0.0542,0.0584,0.0606,0.0623,0.0603,0.0604,0.0584,0.0597,0.0552,0.0551,0.0498,0.0498,0.0571,0.0576,0.0575,0.0574,0.0574,0,0.0266,0.0274,0.0283,0.0293,0.0297,0.0313,0.0355,0.0392,0.0455,0.0508,0.0542,0.0566,0.0566,0.0577,0.0562,0.0572,0.0565,0.0559,0.0558,0.0496,0.0499,0.055,0.0568,0.0568,0.0569,0.0569,0.057,0,0.0243,0.0259,0.0264,0.0267,0.0289,0.0316,0.0347,0.0408,0.0451,0.0508,0.0541,0.0541,0.0563,0.0539,0.0552,0.0557,0.0525,0.0525,0.0474,0.0473,0.05,0.0502,0.0488,0.0488,0.0488,0.0488,0.0488,0,0.0229,0.0228,0.0263,0.0264,0.028,0.031,0.036,0.0399,0.0459,0.0486,0.0536,0.053,0.0553,0.0543,0.0536,0.0501,0.0514,0.0465,0.0457,0.0519,0.0523,0.05,0.0501,0.0488,0.0488,0.0488,0.0488,0,0.0201,0.0223,0.0222,0.0253,0.0275,0.0295,0.0378,0.0404,0.0479,0.0509,0.0525,0.0544,0.0524,0.0532,0.0502,0.049,0.0453,0.0432,0.052,0.0519,0.0429,0.0433,0.0375,0.0373,0.0372,0.037,0.0369,0,0.0185,0.0189,0.0215,0.023,0.0254,0.0311,0.0345,0.0419,0.0439,0.0494,0.0473,0.0486,0.0486,0.043,0.0428,0.0407,0.0395,0.0403,0.0392,0.0412,0.0411,0.0417,0.0422,0.0367,0.0366,0.0366,0.0365,0,0.015,0.0166,0.0166,0.0212,0.0244,0.0275,0.0328,0.0344,0.0406,0.0452,0.043,0.0426,0.0396,0.0375,0.0376,0.035,0.0412,0.0386,0.0389,0.0379,0.0402,0.0404,0.041,0.036,0.0361,0.0361,0.0362,0,0.0124,0.0123,0.0151,0.0185,0.0215,0.0236,0.0273,0.0291,0.0326,0.0375,0.0347,0.0357,0.0371,0.0341,0.032,0.0314,0.0303,0.031,0.0317,0.0323,0.0301,0.0322,0.0236,0,0,0,0,0,0.0105,0.0118,0.0136,0.0168,0.019,0.0216,0.0246,0.0278,0.0319,0.0288,0.0334,0.0299,0.0289,0.0277,0.0257,0.0276,0.0299,0.0251,0.031,0.033,0.0336,0.0313,0,0,0,0,0,0,0.0098,0.011,0.0125,0.015,0.017,0.0196,0.021,0.0234,0.0224,0.0262,0.0244,0.0282,0.0255,0.0296,0.0251,0.025,0.0283,0.0256,0.0256,0.0326,0.0332,0.0337,0.0315,0,0,0,0,0]}]]